1st Responders/1st Detectors/Storm Spotters Weather Summary for Boyle County, KY

Forecast Maps


Reg. NEXRAD Animation


National Fire Danger: Day 1 & 2 Map

Current NWS Watch/Warnings

SPC Convective Day 1 Outlook


Day 2 Outlook

(Click images to enlarge|Page will refresh every 5 minutes)
UK Ag. Weather Center Desktop Severe Weather Service[HERE]
Boyle County, KY Hazardous Weather Outlook Webcast
(9 AM to 9 PM Mon-Fri)
[Fast]
[Dial-up]


UKAWC 1st Detectors/1st Responders Precision Weather Forecast For BOYLE County, Kentucky
(based on the NWS County Digital Forecast)

ISSUED AT 06:00 UTC ON SUNDAY DEC 17 2017
DAY SUNDAY
EDT 3HR 3A 4A 5A 6A 7A 8A 9A 10A 11A NOON 1P 2P 3P 4P 5P 6P 7P
MAX/MIN -- -- -- -- -- 34° -- -- -- -- -- -- -- -- -- -- 45°
TEMP 36° 34° 34° 34° 34° 34° 36° 38° 40° 43° 43° 43° 45° 45° 43° 43° 40°
SKY COVER 36% 43% 51% 59% 67% 75% 68% 75% 81% 88% 94% 100% 100% 100% 100% 100% 100%
Clouds
DEW PT 29° 29° 27° 29° 29° 29° 29° 29° 29° 31° 31° 31° 32° 34° 34° 34° 34°
RH 75% 78% 78% 81% 81% 78% 72% 67% 64% 62% 60% 62% 62% 64% 70% 73% 79%
POP 12HR -- -- -- -- -- 3% -- -- -- -- -- -- -- -- -- -- --
RAIN/SNOW (liq.equ) -- -- -- -- -- 0.00in -- -- -- -- -- 0.00in -- -- -- -- --
SNOWFALL -- -- -- -- -- 0in -- -- -- -- -- 0in -- -- -- -- --
WIND SPEED(MPH) 5 5 5 5 5 6 5 6 6 7 7 7 7 6 5 5 5
WIND Gust(MPH) 7 6 6 6 6 7 6 7 7 7 9 9 8 7 7 7 6
WIND DIR SW S S S S S S S S S S S S S S S S
DEW Frost Frost Frost Frost Frost Frost Frost Frost -- -- -- -- -- -- -- -- --
HeatIndex 32 31 29 29 29 29 33 34 37 38 40 39 41 41 41 40 38
Snow Showers -- -- -- -- -- -- -- -- -- -- -- -- -- -- -- -- --
Rain Showers -- -- -- -- -- -- -- Slight Chance Slight Chance Chance Chance Chance Likely Likely Likely Chance Chance
WIND CHILL 32° 30° 30° 30° 30° 29° 32° 34° 36° 39° 39° 39° 41° 42° 40° 40° 37°
SPRAY COND
DRY COND
LIVESTOCK COLDSTRESS



DAY MONDAY TUESDAY WEDNESDAY THURSDAY FRIDAY SATURDAY
EDT 6HR 8P 9P 10P 11P MIDN 1A 2A 3A 4A 5A 6A 7A 8A 9A 10A 11A NOON 1P 2P 5P 8P 11P 2A 5A 8A 11A 2P 5P 8P 2A 8A 2P 8P 2A 8A 2P 8P 2A 8A 2P 8P 2A 8A 2P 8P
MAX/MIN -- -- -- -- -- -- -- -- -- -- -- -- 38° -- -- -- -- -- -- 52° -- -- -- -- 43° -- -- 56° -- -- 34° 47° -- -- 32° 54° -- -- 40° 50° -- -- 31° 40° --
TEMP 40° 40° 38° 38° 38° 38° 38° 40° 40° 40° 40° 40° 40° 40° 41° 43° 47° 49° 50° 52° 47° 45° 45° 43° 43° 45° 54° 54° 49° 40° 34° 47° 40° 34° 34° 52° 45° 43° 40° 50° 43° 36° 31° 38° 34°
SKY COVER 100% 98% 96% 95% 93% 91% 89% 88% 88% 87% 86% 86% 85% 85% 84% 84% 84% 83% 83% 80% 77% 68% 58% 62% 65% 65% 64% 57% 49% 45% 41% 55% 44% 26% 37% 35% 54% 55% 84% 96% 91% 88% 86% 86% 90%
Clouds
DEW PT 36° 36° 36° 36° 36° 38° 38° 38° 38° 38° 38° 40° 40° 40° 40° 41° 41° 43° 43° 43° 43° 41° 41° 41° 41° 43° 43° 40° 41° 36° 31° 27° 29° 27° 29° 38° 38° 40° 40° 40° 34° 29° 29° 27° 25°
RH 85% 85% 92% 92% 92% 96% 96% 92% 96% 95% 96% 99% 99% 99% 95% 92% 83% 79% 74% 71% 85% 85% 89% 96% 96% 89% 68% 58% 77% 81% 85% 47% 61% 75% 81% 57% 79% 88% 96% 68% 69% 75% 88% 64% 69%
POP 12HR 64% -- -- -- -- -- -- -- -- -- -- -- 16% -- -- -- -- -- -- -- 11% -- -- -- 4% -- -- -- 12% -- 9% -- 43% -- 26% -- 4% -- 20% -- 34% -- 45% -- 49%
RAIN/SNOW (liq.equ) 0.05in -- -- -- -- -- 0.00in -- -- -- -- -- 0.00in -- -- -- -- -- 0.00in -- 0.00in -- 0.00in -- 0.00in -- 0.00in -- 0.00in -- -- -- -- -- -- -- -- -- -- -- -- -- -- -- --
SNOWFALL 0in -- -- -- -- -- 0in -- -- -- -- -- 0in -- -- -- -- -- 0in -- 0in -- 0in -- 0in -- 0in -- 0in -- -- -- -- -- -- -- -- -- -- -- -- -- -- -- --
WIND SPEED(MPH) 5 5 6 6 6 6 6 6 6 6 6 5 5 5 6 7 7 8 8 7 7 7 7 8 7 8 8 8 7 5 6 7 6 6 5 7 6 9 9 10 8 7 6 7 6
WIND DIR S S S S SW SW SW SW SW SW SW SW SW SW SW SW SW SW SW SW SW SW SW SW SW SW W W W NW N NE E E E S S S SW W W W NW W N
HeatIndex 36 36 34 34 34 34 34 35 35 35 35 36 36 38 38 40 47 49 50 52 47 45 40 37 38 45 54 54 49 38 29 47 37 29 29 52 41 37 34 50 37 31 26 34 29
Snow Showers -- -- -- -- -- -- -- -- -- -- -- -- -- -- -- -- -- -- -- -- -- -- -- -- -- -- -- -- -- -- Slight Chance -- -- -- -- -- -- -- -- -- -- -- Chance -- Chance
Rain Showers Slight Chance -- -- -- -- -- -- -- -- -- -- -- -- -- -- -- -- -- -- -- -- -- -- -- -- -- -- -- -- -- Slight Chance Chance Chance -- -- -- -- Chance Chance Chance Chance Chance -- Chance --
WIND CHILL 37° 37° 34° 34° 34° 34° 34° 36° 36° 36° 36° 37° 37° 37° 37° 39° -- -- -- -- -- 41° 41° 38° 39° 41° -- -- -- 37° 29° -- 36° 29° 30° -- 42° 38° 34° -- 38° 30° 25° 33° 29°
SPRAY COND
DRY COND
LIVESTOCK COLDSTRESS

Click on individual weather variable above in left-hand column (ie., TEMP, RH, QPF 12HR) to view state forecast maps






NWS 48 Hr. Forecast Maps,

Regional Hourly Observations For BOYLE County, Kentucky
Issued at 100 AM EST SUN DEC 17 2017
NORTHEAST KENTUCKY
  
CITY           SKY/WX    TMP DP  RH WIND       PRES   REMARKS
LEXINGTON      CLOUDY    37  28  70 S7        30.21S WCI  32          
COVINGTON      PTCLDY    38  30  73 S7        30.17S WCI  33          
FRANKFORT      PTCLDY    38  27  64 S7        30.19F WCI  33          


Current NOWCAST not available:
Nowcasts are not issued routinely during fair weather. Only when
precipitation or other significant weather is occuring in this county will these
forecasts be issued. Currently, there is no short term forecast in effect.


Fire Weather Forecast For BOYLE County, KY
Provided by the National Weather Service:

Issued at: Sun Dec 17 01:05:01 EST 2017


                      Today        Tonight      Sun          

CLOUD COVER           MClear       PCldy        Cloudy       
PRECIP TYPE           NONE         NONE         showers      
CHANCE PRECIP (%)     0            0            70           
TEMP (24H TREND)      53 (+17)     33 (+5)      47           
RH % (24H TREND)      41 (-9)      86 (+2)      64           
20FTWND-VAL/AM(MPH)   SW  8 G19                 Lgt/Var      
20FTWND-RDG/PM(MPH)   SW  9 G19    Lgt/Var      Lgt/Var      
PRECIP AMOUNT         0.00         0.00         0.10         
MIXING HGT(FT-AGL/MSL)3164                      1690         
TRANSPORT WND (MPH)   SW 23                     S 13         
VENT RATE (KT-FT)     71760                     22032        
DISPERSION            Good                      Poor         
DSI                   STBL         STBL         STBL         
LAL                   1            1            1            
HAINES INDEX          3            4            3            
ADI EARLY             45 GEN GOOD  4 VERY POOR  18 GEN POOR  
ADI LATE              55 GEN GOOD  5 VERY POOR  24 FAIR      
MAX LVORI EARLY       4            4            4            
MAX LVORI LATE        2            5            4            

REMARKS...ADI IS ATMOSPHERIC DISPERSION INDEX BY LAVDAS.        
LVORI IS LOW VISIBILITY OCCURRENCE RISK INDEX.

.MONDAY...Mostly cloudy. Lows around 40. Highs in the mid 50s.
South winds around 5 mph. 
.TUESDAY...Mostly cloudy. Lows in the lower 40s. Highs in the
upper 50s. Southwest winds around 5 mph. 
.WEDNESDAY...Partly cloudy. Lows in the mid 30s. Highs in the
lower 50s. Northeast winds up to 5 mph. 
.THURSDAY...Partly cloudy. Lows in the mid 30s. Highs in the
upper 50s. South winds up to 10 mph. 
.FRIDAY...Mostly cloudy with a 50 percent chance of rain showers.
Lows in the lower 40s. Highs in the mid 50s. West winds 5 to
10 mph. 

SPC's Fire Weather Web Tool (Excellent!), SPC's Fire Weather Outlooks, NWS Fire Weather WEB, Fire Danger Class Map,
Keetch-Byram Drought Index, ROMAN Web, Haines Index ,
WFAS's 10-hr Dead Fuel Moist., WFAS's 100-hr Dead Fuel Moist., Probablity of Ignition, Visual blackness Map, Palmer Drought Index, HPC's Rainfall Forecast Maps


Hazardous Weather Outlook For BOYLE County, Kentucky
352 PM EST Sat Dec 16 2017 /252 PM CST Sat Dec 16 2017/

 DAY ONE  This Afternoon and Tonight

No hazardous weather is expected at this time.

 DAYS TWO THROUGH SEVEN  Sunday through Friday

The chance for a rain-snow mix is in the forecast for Friday night
into Saturday, but at this time, confidence on the exact timing
and location of any snow remains low. If you plan to travel over
the holiday weekend, stay tuned for later forecasts highlighting
the potential for active winter weather. 

 SPOTTER INFORMATION STATEMENT  

Spotter activation will not be needed.

Latest BOYLE County, Kentucky Watches, Warnings and Advisories.
Additional Drought Info.: UKAWC Drought Page, Kentucky Drought Watch


7-Day Forecast For BOYLE County, KY

OVERNIGHT
Mostly clear. Lows in the mid 30s. Southwest winds 5 to 10 mph.

SUNDAY
Rain showers likely. Highs in the mid 40s. South winds 5 to 10 mph. Chance of showers 70 percent.

SUNDAY NIGHT
Cloudy with a 20 percent chance of rain showers. Near steady temperature in the upper 30s. Southwest winds around 5 mph.

MONDAY
Mostly cloudy. Highs in the lower 50s. Southwest winds 5 to 10 mph.

MONDAY NIGHT
Partly cloudy. Lows in the lower 40s. Southwest winds 5 to 10 mph.

TUESDAY
Partly cloudy. Highs in the mid 50s.

TUESDAY NIGHT
Partly cloudy. Lows in the mid 30s.

WEDNESDAY
Partly cloudy with a 40 percent chance of rain showers. Highs in the upper 40s.

WEDNESDAY NIGHT
Partly cloudy with a 40 percent chance of rain showers. Lows in the mid 30s.

THURSDAY
Partly cloudy. Highs in the mid 50s.

THURSDAY NIGHT
Partly cloudy with a 20 percent chance of showers. Lows around 40.

FRIDAY
Cloudy with a 40 percent chance of rain showers. Highs in the lower 50s.

FRIDAY NIGHT
Cloudy with a 50 percent chance of rain showers and snow showers. Lows in the lower 30s.

SATURDAY
Mostly cloudy with a 50 percent chance of rain showers and snow showers. Highs around 40.

Ag Weather Center, Department of Biosystems & Agricultural Engineering, University of Kentucky